CAPE
0 0 0 0 0 0 32 3 39 11 47 0 34 354 1153 1199 531 388 379 376 668 1123 1853 2411 2808 2455 1996 1842 1879 1650 1651 1909 2143 2147 2064 2060 2035 1914 1882 2014 1948 1497 1300 1165 1075 1066 975 825 663
0 0 0 0 0 0 0 2 0 25 52 34 94 668 1292 1329 1277 897 602 367 290 1087 1389 2207 2748 2428 2050 1866 1843 1697 1763 1947 2066 2150 2001 1971 1997 2056 1949 2156 1965 1591 1461 1419 1333 1216 1105 938 767
0 0 0 0 0 17 11 1 0 0 34 219 516 745 896 1220 1156 789 586 161 204 692 1447 2265 2825 2551 2279 2049 1893 1793 1759 1842 1992 2109 2021 1838 1846 1875 2000 2131 2207 1810 1588 1423 1366 1329 1235 1092 954
0 0 0 0 0 1 52 3 6 0 155 189 336 22 163 473 534 431 768 161 216 625 1323 2528 2819 2799 2697 2386 2121 1995 1886 1821 1912 2056 2063 1962 1864 1810 1985 2230 2207 2064 1794 1670 1556 1369 1206 1086 1023
0 0 0 0 0 5 16 31 0 19 233 67 25 0 66 69 0 1287 1191 586 538 955 1613 1961 2702 2887 2885 2636 2376 2246 2073 1858 1863 1960 2013 1959 1795 1641 1719 1889 2100 2105 2002 1893 1796 1756 1651 1493 1365
0 0 0 0 0 8 17 35 20 111 146 65 50 59 26 0 0 81 3 152 1088 1028 992 1360 2164 2518 2750 2848 2675 2375 2127 1975 1899 1879 1863 1857 1711 1523 1478 1587 1680 1784 1896 1887 1847 1785 1604 1379 1245
0 0 0 0 0 0 49 23 20 317 215 60 44 14 0 0 44 60 81 116 295 825 788 848 1259 1641 2089 2360 2480 2443 2314 2142 1986 1818 1682 1620 1581 1426 1334 1413 1564 1686 1719 1679 1751 1795 1706 1529 1450
0 0 0 0 0 65 17 6 0 235 147 38 0 0 0 11 69 89 108 205 403 358 311 515 863 1246 1367 1463 2160 2275 2325 2235 2068 1976 1918 1823 1770 1751 1747 1641 1639 1966 1899 1694 1771 1757 1713 1695 1710
0 0 0 0 0 0 0 0 0 77 84 49 26 0 32 342 439 378 360 228 210 259 13 32 396 472 592 1033 1399 1984 2138 2232 2123 2072 2072 1676 1282 1041 1126 1394 1793 1841 1912 1705 1667 1906 1906 1850 1760
0 0 0 0 0 0 0 0 0 222 163 10 100 117 534 968 80 234 435 65 201 133 16 0 178 911 735 1108 1155 1421 1229 1435 1471 1359 1191 1185 923 643 612 825 1554 1831 1893 1818 1723 1934 1898 1773 710
0 0 0 0 0 0 0 0 0 0 36 304 277 28 24 700 833 594 365 8 25 255 247 1 136 878 359 52 268 854 858 927 974 997 880 700 987 665 666 776 1189 1155 1607 1347 1542 1642 1207 331 1
0 0 0 0 0 0 0 0 0 0 0 0 0 0 163 91 346 325 52 0 215 254 66 0 513 568 0 0 306 418 907 1241 1143 1068 905 745 1210 650 0 4 37 1152 1021 1248 1190 1063 337 26 67
0 0 0 0 0 0 0 0 0 0 0 0 0 0 31 263 17 0 163 273 118 19 0 0 39 560 114 6 49 457 606 661 647 1413 427 41 27 0 0 0 0 0 207 1059 1001 621 73 6 44
0 0 0 0 0 0 0 0 0 0 0 0 0 0 0 57 318 618 801 458 170 405 618 468 0 309 249 262 392 368 260 9 9 0 0 0 0 0 0 0 0 0 0 29 346 619 61 189 145
0 0 0 0 0 0 0 0 0 0 0 0 0 0 17 79 159 199 277 623 685 320 177 569 329 10 0 0 0 0 0 0 0 0 0 0 0 0 0 0 0 0 0 0 0 0 1 9 132
0 0 0 0 0 0 0 0 0 0 0 0 0 0 23 39 69 98 70 40 13 0 0 0 0 0 0 0 0 0 0 0 0 0 0 0 0 0 0 0 0 0 0 0 0 0 0 0 0
0 0 0 0 0 0 0 0 0 0 0 0 0 0 23 29 43 42 39 6 38 27 0 0 0 0 0 0 0 0 0 0 0 0 0 0 0 0 0 0 0 0 12 4 0 0 0 0 0
0 0 0 0 0 0 0 0 0 0 0 0 0 0 0 8 15 20 26 5 19 9 0 0 0 0 0 0 0 0 0 0 0 0 0 0 0 0 0 0 12 13 15 12 3 6 1 0 0
0 0 0 0 0 0 0 0 0 0 0 0 0 0 0 0 0 17 23 30 2 0 0 0 0 0 0 0 0 0 0 0 0 0 16 0 0 0 0 0 1 61 42 2 0 9 21 0 0
0 0 0 0 0 0 0 0 0 0 0 0 0 0 0 0 0 0 0 0 0 0 0 0 0 0 0 0 0 0 0 40 98 79 70 21 53 7 10 0 0 0 0 19 34 21 60 8 2
0 0 0 0 0 0 0 0 0 0 0 0 0 0 0 0 0 0 0 0 0 0 0 0 0 0 0 0 0 0 0 0 48 80 175 170 225 131 68 24 59 14 3 25 69 105 69 35 1
0 0 0 0 0 0 0 0 0 0 0 0 0 0 0 0 0 0 0 0 0 0 0 0 0 0 0 0 0 0 0 0 0 33 35 106 219 280 238 251 152 98 98 118 10 71 150 47 84
0 0 0 0 0 0 0 0 0 0 0 0 0 0 0 0 0 0 0 0 0 0 0 0 0 0 0 0 0 0 5 4 0 5 23 9 8 42 74 28 0 8 0 45 98 120 179 84 40
0 0 0 0 0 0 0 0 0 0 0 0 0 0 0 0 0 0 0 0 0 0 0 0 0 0 0 0 0 4 0 0 41 48 18 0 0 3 60 65 13 0 0 0 0 0 0 4 1
0 0 0 0 0 0 0 0 0 0 0 0 0 0 0 0 0 0 0 0 0 0 0 0 0 0 0 0 0 0 0 7 8 0 2 6 1 4 27 0 0 0 0 0 3 0 0 0 2
0 0 0 0 0 0 0 0 0 0 0 0 0 0 0 0 0 0 0 0 0 0 0 0 0 0 0 0 0 0 0 0 1 7 13 0 0 5 0 0 0 0 0 0 0 0 0 4 1
0 0 0 0 0 0 0 0 0 0 0 0 0 0 0 0 0 0 0 0 0 0 0 0 0 0 0 0 0 0 0 0 0 0 0 0 0 0 0 0 0 0 0 0 0 0 0 0 0
0 0 0 0 0 0 0 0 0 0 0 0 0 0 0 0 0 0 0 0 0 0 0 0 0 0 0 0 0 0 0 0 0 0 0 0 0 0 0 0 1 1 0 0 0 0 0 0 0
0 0 0 0 0 0 0 0 0 0 0 0 0 0 0 0 0 0 0 0 0 0 0 0 0 0 0 0 0 0 0 0 0 0 0 0 0 0 0 0 0 0 0 0 0 0 0 0 0
0 0 0 0 0 0 0 0 0 0 0 0 0 0 0 0 0 0 0 0 0 0 0 0 0 0 0 0 0 0 0 0 0 0 0 0 0 1 0 0 2 10 3 0 0 0 1 2 1
CIN
0 0 0 0 0 0 -242 -47 -210 -160 -177 0 -82 -46 -58 -52 -92 -65 -257 -265 -264 -204 -111 -62 -44 -66 -108 -122 -115 -112 -86 -53 -23 -6 -2 0 0 -2 -1 0 0 -2 -18 -24 -21 -20 -22 -21 -14
0 0 0 0 0 0 0 -146 -1 -153 -273 -279 -311 -197 -77 -66 -69 -152 -171 -237 -318 -196 -151 -70 -31 -42 -78 -104 -107 -121 -95 -63 -42 -22 -14 -5 0 0 -1 0 0 0 0 -3 -9 -12 -12 -22 -25
0 0 0 0 0 -54 -60 -70 -1 -33 -225 -246 -138 -109 -129 -48 -38 -89 -166 -337 -298 -206 -145 -91 -35 -29 -49 -69 -93 -106 -101 -77 -62 -38 -37 -36 -21 -8 -1 0 0 -4 -5 -4 -4 -3 -3 -6 -16
0 0 0 0 0 -28 -92 -48 -264 0 -166 -185 -168 -175 -240 -190 -115 -197 -145 -263 -292 -226 -133 -30 -42 -50 -42 -46 -61 -73 -82 -80 -63 -38 -38 -43 -47 -35 -10 -2 -1 -1 -1 -1 0 0 -4 -12 -17
0 0 0 0 0 -107 -151 -205 -1 -183 -219 -251 -218 0 -197 -153 0 -78 -133 -162 -247 -187 -113 -65 -13 -13 -15 -28 -39 -46 -47 -54 -56 -48 -32 -28 -35 -48 -36 -13 -1 0 0 0 0 0 0 0 -1
0 0 0 0 0 -105 -182 -249 -236 -249 -272 -293 -271 -305 -198 0 0 -310 -116 -300 -101 -147 -130 -62 -1 0 0 -5 -17 -30 -34 -37 -36 -31 -22 -17 -21 -27 -35 -24 -12 -2 -1 0 0 -1 -1 -1 -6
0 0 0 0 0 0 -131 -274 -215 -219 -235 -262 -392 -255 0 0 -373 -444 -444 -411 -330 -200 -235 -231 -120 -55 -24 -3 -5 -21 -31 -35 -25 -21 -18 -13 -13 -28 -39 -40 -29 -19 -14 -3 -1 -1 -1 -1 -1
0 0 0 0 0 -34 -109 -174 0 -208 -216 -226 0 0 0 -509 -406 -501 -421 -340 -320 -395 -404 -385 -316 -238 -188 -102 -14 -9 -21 -34 -53 -55 -53 -60 -48 -35 -37 -54 -49 -27 -14 -14 -3 -1 -1 -1 -1
0 0 0 0 0 0 -54 0 0 -176 -202 -199 -139 0 -288 -265 -286 -327 -373 -460 -397 -399 -467 -470 -341 -452 -322 -276 -155 -52 -43 -34 -34 -37 -46 -75 -124 -146 -135 -94 -51 -34 -33 -33 -20 -6 -6 -14 -16
0 0 0 0 0 0 0 0 0 -112 -114 -94 -111 -276 -212 -172 -400 -323 -333 -408 -351 -388 -583 0 -456 -320 -397 -234 -342 -244 -185 -133 -138 -160 -158 -164 -210 -249 -231 -178 -82 -60 -52 -34 -37 -25 -24 -13 -129
0 0 0 0 0 0 0 0 0 0 -145 -123 -117 -383 -402 -244 -244 -287 -376 -489 -541 -362 -414 -91 -456 -292 -435 -538 -567 -300 -270 -224 -229 -232 -271 -279 -205 -267 -265 -229 -175 -181 -101 -88 -65 -47 -76 -219 -168
0 0 0 0 0 0 0 0 0 0 0 0 0 0 -290 -406 -273 -315 -353 0 -401 -380 -395 0 -320 -388 -162 0 -501 -414 -265 -138 -203 -217 -241 -254 -186 -251 -1 -306 -162 -173 -187 -138 -125 -159 -282 -490 -406
0 0 0 0 0 0 0 0 0 0 0 0 0 0 -422 -352 -175 0 -337 -434 -453 -329 0 0 -337 -272 -532 -806 -572 -322 -267 -232 -320 -166 -348 -267 -238 0 0 0 0 0 -317 -174 -185 -254 -346 -168 -451
0 0 0 0 0 0 0 0 0 0 0 0 0 0 0 -543 -390 -270 -202 -297 -396 -277 -220 -195 0 -216 -276 -301 -240 -248 -275 -428 -169 0 0 0 0 0 0 0 0 0 0 -36 -296 -221 -364 -315 -384
0 0 0 0 0 0 0 0 0 0 0 0 0 0 -628 -569 -448 -367 -266 -143 -117 -249 -296 -146 -175 -17 0 0 0 0 0 0 0 0 0 0 0 0 0 0 0 0 0 0 0 0 -28 -24 -326
0 0 0 0 0 0 0 0 0 0 0 0 0 0 -642 -630 -588 -507 -458 -403 -404 0 0 0 0 0 0 0 0 0 0 0 0 0 0 0 0 0 0 0 0 0 0 0 0 0 0 0 0
0 0 0 0 0 0 0 0 0 0 0 0 0 0 -687 -690 -632 -580 -538 -564 -429 -417 0 0 0 0 0 0 0 0 0 0 0 0 0 0 0 0 0 0 0 0 -459 -507 0 0 0 0 0
0 0 0 0 0 0 0 0 0 0 0 0 0 0 0 -628 -661 -620 -561 -563 -537 -497 0 0 0 0 0 0 0 0 0 0 0 0 0 0 0 0 0 -20 -251 -306 -314 -346 -246 -238 -237 0 0
0 0 0 0 0 0 0 0 0 0 0 0 0 0 0 0 0 -591 -528 -500 -430 0 0 0 0 0 0 0 0 0 0 0 0 0 -279 0 0 0 0 0 -301 -188 -186 -176 -2 -289 -254 0 0
0 0 0 0 0 0 0 0 0 0 0 0 0 0 0 0 0 0 0 0 0 0 0 0 0 0 0 0 0 0 0 -277 -243 -292 -283 -285 -253 -202 -26 0 -17 -36 0 -188 -165 -184 -158 -281 -97
0 0 0 0 0 0 0 0 0 0 0 0 0 0 0 0 0 0 0 0 0 0 0 0 0 0 0 0 0 0 0 -29 -369 -361 -244 -209 -145 -115 -148 -53 -77 -75 -27 -65 -129 -75 -86 -118 -136
0 0 0 0 0 0 0 0 0 0 0 0 0 0 0 0 0 0 0 0 0 0 0 0 0 0 0 0 0 0 0 0 -26 -286 -299 -234 -116 -119 -86 -75 -88 -68 -53 -58 -137 -75 -75 -133 -112
0 0 0 0 0 0 0 0 0 0 0 0 0 0 0 0 0 0 0 0 0 0 0 0 0 0 0 0 0 0 -209 -214 -7 -243 -175 -283 -153 -225 -155 -177 -6 -117 -11 -145 -92 -72 -60 -80 -128
0 0 0 0 0 0 0 0 0 0 0 0 0 0 0 0 0 0 0 0 0 0 0 0 0 0 0 0 0 -85 -12 -9 -172 -159 -177 0 0 -119 -132 -126 -183 0 0 0 0 0 0 -24 -10
0 0 0 0 0 0 0 0 0 0 0 0 0 0 0 0 0 0 0 0 0 0 0 0 0 0 0 0 0 0 -19 -134 -204 -44 -121 -164 -59 -153 -168 0 0 0 0 -29 -172 -16 0 0 -56
0 0 0 0 0 0 0 0 0 0 0 0 0 0 0 0 0 0 0 0 0 0 0 0 0 0 0 0 0 0 0 0 -106 -226 -219 0 -81 -190 0 0 0 0 0 0 -10 0 -20 -125 -123
0 0 0 0 0 0 0 0 0 0 0 0 0 0 0 0 0 0 0 0 0 0 0 0 0 0 0 0 0 0 0 0 0 0 0 0 0 0 0 0 0 0 -18 0 0 0 0 0 0
0 0 0 0 0 0 0 0 0 0 0 0 0 0 0 0 0 0 0 0 0 0 0 0 0 0 0 0 0 0 0 0 0 0 0 0 0 0 0 0 -57 -105 0 0 0 0 0 0 0
0 0 0 0 0 0 0 0 0 0 0 0 0 0 0 0 0 0 0 0 0 0 0 0 0 0 0 0 0 0 0 0 0 0 0 0 0 0 0 0 0 0 0 0 0 0 0 0 0
0 0 0 0 0 0 0 0 0 0 0 0 0 0 0 0 0 0 0 0 0 0 0 0 0 0 0 0 0 0 0 0 0 0 0 0 0 -15 -19 0 -20 -24 -36 0 0 0 -21 -10 -18
Wind_Speed
5 4 2 3 5 7 1 2 1 4 6 4 17 14 10 4 2 4 3 11 13 9 6 8 12 13 13 14 14 12 11 11 10 9 9 8 7 9 9 8 7 8 9 9 9 8 7 6 7
2 3 3 1 6 4 3 2 3 5 12 16 13 10 4 6 4 9 6 7 9 9 5 6 10 10 11 12 12 13 12 11 11 10 8 7 6 6 7 7 7 6 6 7 8 7 6 4 4
3 1 4 5 4 2 4 4 6 4 17 12 9 3 2 5 2 6 9 12 8 5 5 9 11 9 9 9 9 11 10 10 11 10 9 7 6 4 4 5 6 7 6 5 5 6 5 3 1
0 5 5 5 2 4 8 7 6 9 4 6 3 2 2 4 6 5 11 13 10 7 6 6 10 12 10 9 8 8 9 9 8 9 9 9 8 7 5 5 6 6 5 5 5 4 4 3 1
4 3 4 3 2 3 4 8 9 4 6 3 1 3 5 5 10 8 14 10 11 7 6 6 7 7 7 8 7 5 4 5 6 6 6 6 7 7 6 5 4 4 5 5 3 2 3 2 2
5 4 5 5 3 6 3 3 9 4 6 1 3 4 3 8 16 18 17 13 10 11 8 8 11 11 8 5 5 6 5 3 2 3 4 4 3 4 5 5 4 4 5 5 3 5 5 3 4
6 5 5 3 5 1 3 4 9 6 6 5 7 3 3 20 18 21 19 14 13 8 8 7 6 6 6 3 0 4 4 4 3 3 4 4 4 5 6 7 8 7 7 6 7 6 5 5 6
6 5 7 4 4 3 6 3 10 13 7 2 7 2 6 9 21 19 13 12 4 3 2 7 7 7 6 1 2 3 4 6 7 8 8 8 7 8 8 10 10 10 9 9 7 6 7 8 7
4 5 5 6 9 3 4 4 7 8 8 5 5 6 22 15 13 12 8 9 8 5 3 6 5 7 3 6 5 5 8 8 8 7 8 7 4 5 7 9 11 12 12 10 9 10 10 9 9
6 3 5 4 1 12 5 11 7 7 3 5 4 20 18 15 9 6 3 4 6 2 5 3 4 5 6 2 7 6 4 4 4 5 6 4 5 5 6 9 12 15 14 10 12 11 11 9 3
4 7 5 1 12 9 9 11 2 12 5 3 9 17 11 11 8 6 4 2 3 1 4 6 7 1 1 5 2 2 0 3 3 6 5 5 3 4 3 4 5 4 8 4 6 5 4 3 3
2 6 6 4 7 6 8 6 7 15 14 18 24 20 17 12 7 7 6 3 6 8 5 6 5 6 7 4 4 4 3 3 4 5 5 4 2 2 1 2 3 1 1 4 5 3 4 4 6
5 6 5 8 12 8 8 7 9 18 21 21 22 21 18 16 15 10 5 5 6 7 3 5 8 7 7 7 6 5 5 4 4 4 1 1 0 1 2 2 3 3 2 1 3 3 3 4 5
2 5 5 4 9 6 13 3 7 10 24 21 23 19 18 18 12 11 9 6 8 7 7 4 4 6 3 4 7 5 5 5 2 3 2 1 2 3 3 2 3 2 3 2 2 3 4 4 4
1 3 4 2 7 7 12 5 5 10 21 21 21 18 18 18 17 17 13 11 8 6 7 7 3 3 3 3 5 5 5 5 3 2 2 0 2 3 3 2 2 2 3 5 4 4 3 3 3
6 5 4 5 4 3 9 3 3 10 21 16 18 17 17 15 17 15 12 10 9 8 8 6 6 7 7 6 6 6 5 4 4 4 4 3 1 2 3 1 2 2 3 3 3 2 1 2 2
8 5 4 3 5 6 7 5 4 9 18 14 14 14 15 15 14 12 12 10 8 9 8 8 7 7 6 6 5 6 7 8 8 8 5 10 7 3 3 1 2 4 2 3 2 3 2 3 4
4 5 7 5 3 3 5 3 5 6 15 14 13 12 13 13 12 13 11 9 8 9 8 8 6 8 6 4 3 3 4 5 5 7 7 10 9 11 8 5 4 3 3 3 3 2 2 2 3
8 6 3 3 6 4 4 7 8 7 11 11 10 11 10 11 8 11 10 9 7 6 8 9 8 6 4 1 2 3 2 3 3 3 6 6 7 9 6 6 8 6 3 1 1 1 1 2 2
9 8 7 4 10 6 6 6 7 3 4 11 13 10 9 7 7 7 8 8 8 8 8 6 5 5 2 2 1 1 2 2 2 1 0 2 1 3 5 7 7 9 7 7 4 1 1 1 1
4 6 3 3 5 5 4 7 5 3 7 6 7 10 8 11 9 7 7 8 7 8 6 4 5 6 5 6 4 2 1 1 0 2 2 3 2 3 4 3 8 6 6 8 4 3 4 2 2
3 3 2 5 5 2 3 5 5 5 7 7 8 7 8 7 5 6 7 3 2 5 6 6 8 8 6 5 3 6 5 4 4 3 4 5 6 6 5 7 7 7 8 10 4 3 4 3 2
5 3 3 3 3 2 5 3 8 6 3 1 1 3 5 5 6 3 6 8 5 6 7 8 5 3 4 4 4 5 5 4 3 3 6 6 6 6 5 3 2 0 2 3 3 2 1 1 2
2 5 7 6 3 3 4 5 6 3 2 4 5 6 5 6 7 8 5 3 2 2 4 5 5 4 6 5 6 7 7 7 5 5 5 5 4 3 3 5 5 5 3 3 3 2 2 1 2
12 8 6 7 7 5 4 7 5 5 5 8 7 5 7 6 6 5 6 5 2 3 3 2 4 5 5 6 7 7 6 6 6 8 5 6 4 3 5 3 4 3 3 3 1 2 3 2 1
2 6 6 1 1 6 6 3 5 6 4 5 6 8 6 6 1 3 6 7 5 6 7 8 7 6 6 6 6 5 4 2 3 4 4 5 4 4 3 4 4 4 4 3 4 3 3 4 4
4 3 5 5 2 3 2 2 5 2 3 3 7 7 4 2 6 8 7 7 8 7 5 4 6 6 6 4 5 6 6 7 6 8 6 3 4 4 6 6 6 5 4 4 5 4 4 4 5
5 3 4 4 0 3 4 1 4 5 5 6 6 6 4 6 7 5 5 6 4 5 4 6 6 5 5 6 6 5 7 6 5 5 6 6 6 6 6 5 4 5 5 6 5 4 4 5 5
2 2 5 4 5 6 1 7 7 4 5 7 4 3 1 4 3 3 3 3 4 3 3 3 5 6 7 7 7 7 7 7 6 6 6 7 7 8 7 7 6 6 6 6 5 6 6 6 6
4 5 6 7 4 1 5 8 5 8 6 7 4 3 5 5 0 2 3 3 3 2 4 5 5 6 6 6 8 10 7 7 7 7 7 8 7 7 7 7 6 7 7 7 7 7 6 6 6
Wind_Direction
258 189 148 41 50 57 341 278 168 87 91 74 337 300 83 126 139 186 102 142 130 147 156 143 143 143 141 137 133 129 124 120 111 99 94 94 93 106 107 110 111 116 123 123 119 116 110 95 88
270 140 53 77 80 32 285 277 352 170 134 142 192 252 128 71 69 113 116 157 135 138 125 114 129 134 135 137 136 135 137 135 131 126 118 111 112 116 119 121 125 127 131 133 134 130 121 101 76
267 130 82 92 92 217 196 182 184 141 156 174 184 219 22 119 45 124 137 130 122 106 129 135 124 123 129 135 137 141 143 147 143 148 140 137 138 141 141 141 147 153 152 151 145 137 131 125 76
3 5 18 75 264 301 170 184 185 132 136 252 213 76 75 149 358 140 129 121 99 90 75 104 122 131 134 137 143 146 150 153 152 160 158 166 165 171 181 175 177 175 180 176 169 154 153 157 191
41 55 32 354 265 207 236 179 139 129 166 183 242 198 93 68 4 110 106 104 105 97 81 76 86 108 120 130 134 136 148 158 165 163 175 184 186 187 198 214 220 217 207 210 188 187 215 224 242
18 99 16 304 232 207 304 158 137 137 176 130 45 104 61 27 49 57 59 27 54 70 64 56 47 31 31 85 124 147 162 172 190 198 212 220 225 233 234 247 252 267 273 263 243 226 233 255 268
121 88 250 272 310 359 174 174 138 129 143 243 151 102 118 73 88 73 63 54 46 65 101 107 99 73 59 17 146 171 171 167 187 215 235 254 260 260 257 255 250 249 252 257 261 270 274 273 279
102 88 330 298 290 86 187 152 131 155 205 92 176 163 131 144 107 101 100 88 67 339 5 131 134 139 141 143 273 250 219 206 203 204 205 203 218 236 246 251 253 244 243 246 252 256 251 251 256
106 42 294 273 83 350 60 120 153 156 132 230 179 92 99 122 104 98 120 118 176 188 141 324 3 77 77 164 187 220 221 219 225 228 221 226 216 238 257 261 258 256 247 242 238 237 239 235 238
86 93 269 215 291 128 111 93 111 109 102 29 47 77 97 111 110 150 80 125 67 40 47 8 279 53 124 194 169 187 239 240 221 217 237 241 230 239 253 262 262 253 247 229 229 229 233 234 233
186 171 234 30 120 117 97 70 117 116 65 49 95 91 88 101 104 94 95 360 47 66 47 14 325 140 187 226 116 44 30 258 268 248 219 236 267 258 262 268 277 229 241 211 223 224 233 212 232
144 211 193 108 118 96 103 117 61 72 86 90 90 94 94 111 92 91 71 33 30 56 32 8 13 351 311 330 27 358 338 292 242 236 253 250 230 266 319 298 336 337 189 202 220 210 198 246 248
106 171 103 115 113 116 123 108 130 101 106 95 89 84 82 88 99 107 103 54 85 97 99 30 13 350 326 347 339 324 294 275 263 247 318 273 35 138 48 23 47 22 29 184 235 232 257 262 267
162 93 136 162 141 127 116 176 86 108 117 103 97 92 93 95 100 93 86 75 48 27 7 79 70 19 40 308 305 297 285 324 9 94 69 10 65 61 38 59 40 38 15 6 269 240 242 259 276
169 40 29 207 167 140 111 23 130 124 102 108 108 109 105 101 97 96 99 93 103 70 54 54 27 13 19 351 309 339 347 336 333 337 196 263 22 71 68 61 32 27 20 79 56 23 15 359 314
10 59 8 289 176 103 97 207 242 141 114 118 117 115 112 112 110 109 109 110 118 112 103 98 77 46 25 14 355 355 357 356 337 339 312 297 288 86 55 41 347 43 75 65 58 58 1 2 352
8 288 208 281 215 134 94 184 225 135 122 128 122 118 116 118 113 120 119 124 125 129 119 96 81 66 53 33 22 28 14 21 14 2 341 353 336 347 92 135 354 23 51 60 39 34 49 336 336
281 11 341 4 279 166 61 162 152 155 128 136 134 129 125 127 137 131 131 139 142 142 141 141 141 133 120 116 88 56 54 32 23 22 44 24 20 12 347 6 37 51 63 33 28 26 331 286 304
91 83 83 262 341 77 185 162 191 180 124 141 135 133 133 137 160 141 149 151 150 154 153 161 155 174 143 101 106 79 34 1 43 16 15 23 7 1 6 358 347 352 357 339 322 355 326 308 336
67 51 355 306 350 50 151 228 222 86 152 153 142 137 142 135 151 159 163 166 186 177 186 174 144 138 77 88 281 285 187 177 214 268 334 348 209 326 348 327 321 323 326 317 307 358 333 266 354
49 87 352 265 329 347 55 340 179 48 115 111 128 144 152 159 165 173 180 191 190 185 189 149 154 164 182 178 167 178 315 29 152 238 215 258 247 158 161 270 278 284 297 273 228 246 177 241 282
25 253 343 324 49 273 89 260 308 172 111 144 155 152 159 164 158 180 205 175 154 222 147 171 190 194 210 197 194 184 191 215 222 203 208 230 228 218 236 228 232 229 252 261 280 230 226 138 248
229 327 309 258 263 37 358 75 297 25 137 200 43 109 92 123 163 54 61 122 112 130 167 195 200 231 238 249 246 222 216 233 235 231 234 243 229 226 244 262 359 320 294 326 310 332 348 252 51
358 8 354 31 87 41 259 135 331 318 263 45 85 101 148 66 66 60 63 132 69 158 139 141 164 194 233 260 263 247 248 246 232 243 246 255 266 272 202 169 164 151 113 11 17 32 1 261 244
40 44 346 3 13 225 345 59 219 263 130 134 141 135 86 79 57 22 356 346 218 161 58 29 23 29 13 31 21 12 359 329 297 290 284 283 256 229 234 216 211 181 185 174 172 332 320 308 231
332 129 145 258 297 279 345 118 237 220 137 119 116 110 90 70 9 321 334 2 50 37 43 48 35 24 19 24 2 351 345 299 275 255 255 249 244 241 247 261 253 258 238 223 200 209 221 237 249
323 42 184 113 349 40 253 22 352 213 153 88 83 95 67 17 347 352 28 62 84 74 58 46 28 13 10 336 313 314 306 301 285 283 268 251 247 244 236 237 246 258 253 239 223 221 234 230 238
134 182 41 12 311 306 297 204 225 231 238 86 90 89 48 15 27 47 67 104 80 64 51 32 12 335 293 297 301 294 295 302 307 319 314 307 299 290 281 269 261 253 247 249 252 267 262 242 244
17 20 62 111 137 167 281 280 217 220 118 119 119 204 190 79 62 43 64 99 79 56 35 326 305 301 318 329 325 324 306 296 299 294 285 277 266 263 262 254 251 250 251 249 243 236 245 247 254
173 174 129 116 262 179 152 266 47 124 130 126 157 52 60 94 75 326 74 81 56 4 301 306 332 353 343 319 308 301 292 291 288 275 279 276 266 268 265 257 253 252 239 236 234 231 238 232 241